Weather History for Fort Yukon, AK

Change the Weather History Date:

Tuesday, January 22, 2013

  Actual Average Record
Temperature  
Mean Temperature 0 °F -  
Max Temperature 1 °F -6 °F 24 °F (2008)
Min Temperature -2 °F -19 °F -47 °F (1997)
Degree Days  
Heating Degree Days 66    
Moisture  
Dew Point -12 °F    
Average Humidity 58    
Maximum Humidity 66    
Minimum Humidity 33    
Precipitation  
Precipitation 0.00 in - - ()
Sea Level Pressure  
Sea Level Pressure 30.18 in    
Wind  
Wind Speed 12 mph (ENE)    
Max Wind Speed 18 mph    
Max Gust Speed 25 mph    
Visibility 10 miles    
Events      
Averages and records for this station are not official NWS values.
T = Trace of Precipitation, MM = Missing Value Source: NWS Daily Summary

Daily Weather History Graph

Daily Weather History Graph

Search for Another Location

Airport:

Trip Planner

Search our weather history database for the weather conditions in past years. The results will help you decide how hot, cold, wet, or windy it might be!

Date:

Astronomy

Jan. 22, 2013 Rise Set
Actual Time 10:17 AM AKST 3:29 PM AKST
Civil Twilight 9:03 AM AKST 4:43 PM AKST
Nautical Twilight 7:53 AM AKST 5:52 PM AKST
Astronomical Twilight 6:51 AM AKST 6:55 PM AKST
Moon 11:25 AM AKST (1/22) 7:19 AM AKST (1/22)
Length of Visible Light 7h 40m
Length of Day
5h 12m
Waxing Gibbous, 84% of the Moon is Illuminated
Jan 22
Waxing Gibbous
Jan 26
Full
Feb 3
Last Quarter
Feb 9
New
Feb 17
First Quarter

Hourly Weather History & Observations

Time (AKST) Temp. Windchill Dew Point Humidity Pressure Visibility Wind Dir Wind Speed Gust Speed Precip Events Conditions
12:16 AM -0.4 °F -16.7 °F -9.4 °F 66% 30.30 in 10.0 mi ENE 10.4 mph - N/A   Clear
12:36 AM -0.4 °F -17.6 °F -9.4 °F 66% 30.30 in 10.0 mi ENE 11.5 mph - N/A   Clear
12:56 AM -0.4 °F -17.6 °F -9.4 °F 66% 30.29 in 10.0 mi ENE 11.5 mph 16.1 mph N/A   Clear
1:16 AM -0.4 °F -16.7 °F -9.4 °F 66% 30.29 in 10.0 mi ENE 10.4 mph - N/A   Clear
1:56 AM -0.4 °F -16.7 °F -9.4 °F 66% 30.29 in 10.0 mi ENE 10.4 mph - N/A   Clear
2:16 AM -0.4 °F -16.7 °F -9.4 °F 66% 30.28 in 10.0 mi ENE 10.4 mph - N/A   Clear
2:36 AM -0.4 °F -15.7 °F -9.4 °F 66% 30.28 in 10.0 mi ENE 9.2 mph - N/A   Clear
2:56 AM -0.4 °F -15.7 °F -9.4 °F 66% 30.27 in 10.0 mi ENE 9.2 mph - N/A   Clear
3:16 AM -0.4 °F -15.7 °F -9.4 °F 66% 30.26 in 10.0 mi ENE 9.2 mph - N/A   Clear
3:36 AM -0.4 °F -15.7 °F -9.4 °F 66% 30.26 in 10.0 mi ENE 9.2 mph - N/A   Clear
3:56 AM -0.4 °F -16.7 °F -9.4 °F 66% 30.26 in 10.0 mi ENE 10.4 mph - N/A   Clear
4:16 AM -0.4 °F -17.6 °F -9.4 °F 66% 30.25 in 10.0 mi NE 11.5 mph 17.3 mph N/A   Clear
4:36 AM -0.4 °F -16.7 °F -9.4 °F 66% 30.25 in 10.0 mi NE 10.4 mph - N/A   Clear
4:56 AM -0.4 °F -16.7 °F -11.2 °F 60% 30.24 in 10.0 mi NE 10.4 mph - N/A   Clear
5:16 AM -0.4 °F -17.6 °F -9.4 °F 66% 30.24 in 10.0 mi NE 11.5 mph - N/A   Clear
5:36 AM -0.4 °F -16.7 °F -9.4 °F 66% 30.23 in 10.0 mi ENE 10.4 mph 16.1 mph N/A   Clear
5:56 AM -0.4 °F -16.7 °F -9.4 °F 66% 30.23 in 10.0 mi NE 10.4 mph - N/A   Clear
6:16 AM -0.4 °F -18.4 °F -9.4 °F 66% 30.23 in 10.0 mi ENE 12.7 mph 17.3 mph N/A   Clear
6:36 AM -0.4 °F -15.7 °F -9.4 °F 66% 30.22 in 10.0 mi ENE 9.2 mph - N/A   Clear
6:56 AM -0.4 °F -16.7 °F -9.4 °F 66% 30.22 in 10.0 mi ENE 10.4 mph 17.3 mph N/A   Clear
7:16 AM -0.4 °F -16.7 °F -9.4 °F 66% 30.22 in 10.0 mi ENE 10.4 mph - N/A   Clear
7:36 AM -0.4 °F -19.2 °F -9.4 °F 66% 30.21 in 10.0 mi NE 13.8 mph 20.7 mph N/A   Clear
7:56 AM -0.4 °F -16.7 °F -9.4 °F 66% 30.21 in 10.0 mi ENE 10.4 mph 19.6 mph N/A   Clear
8:16 AM -0.4 °F -18.4 °F -9.4 °F 66% 30.20 in 10.0 mi ENE 12.7 mph 18.4 mph N/A   Clear
8:36 AM -0.4 °F -19.9 °F -9.4 °F 66% 30.20 in 10.0 mi ENE 15.0 mph 19.6 mph N/A   Clear
8:56 AM -0.4 °F -17.6 °F -9.4 °F 66% 30.20 in 10.0 mi ENE 11.5 mph 20.7 mph N/A   Clear
9:16 AM -0.4 °F -19.2 °F -9.4 °F 66% 30.20 in 10.0 mi ENE 13.8 mph 20.7 mph N/A   Scattered Clouds
9:36 AM 1.4 °F -16.1 °F -9.4 °F 61% 30.20 in 10.0 mi ENE 12.7 mph - N/A   Scattered Clouds
9:56 AM 1.4 °F -17.6 °F -9.4 °F 61% 30.20 in 10.0 mi ENE 15.0 mph 19.6 mph N/A   Scattered Clouds
10:16 AM 1.4 °F -17.6 °F -9.4 °F 61% 30.20 in 10.0 mi ENE 15.0 mph 23.0 mph N/A   Mostly Cloudy
10:36 AM 1.4 °F -17.6 °F -9.4 °F 61% 30.20 in 10.0 mi ENE 15.0 mph 20.7 mph N/A   Mostly Cloudy
10:56 AM -0.4 °F -19.9 °F -9.4 °F 66% 30.19 in 10.0 mi ENE 15.0 mph 20.7 mph N/A   Mostly Cloudy
11:16 AM -0.4 °F -18.4 °F -9.4 °F 66% 30.19 in 10.0 mi ENE 12.7 mph 21.9 mph N/A   Scattered Clouds
11:36 AM -0.4 °F -18.4 °F -9.4 °F 66% 30.19 in 10.0 mi ENE 12.7 mph 19.6 mph N/A   Scattered Clouds
11:56 AM -0.4 °F -19.9 °F -9.4 °F 66% 30.19 in 10.0 mi ENE 15.0 mph 19.6 mph N/A   Scattered Clouds
12:16 PM 1.4 °F -16.1 °F -9.4 °F 61% 30.19 in 10.0 mi ENE 12.7 mph 20.7 mph N/A   Scattered Clouds
12:36 PM 1.4 °F -17.6 °F -9.4 °F 61% 30.19 in 10.0 mi NE 15.0 mph 21.9 mph N/A   Scattered Clouds
12:56 PM 1.4 °F -17.6 °F -11.2 °F 56% 30.18 in 10.0 mi ENE 15.0 mph 21.9 mph N/A   Scattered Clouds
1:36 PM 1.4 °F -18.2 °F -11.2 °F 56% 30.17 in 10.0 mi ENE 16.1 mph 23.0 mph N/A   Scattered Clouds
1:56 PM 1.4 °F -18.8 °F -11.2 °F 56% 30.17 in 10.0 mi ENE 17.3 mph 21.9 mph N/A   Scattered Clouds
2:16 PM 1.4 °F -18.2 °F -11.2 °F 56% 30.16 in 10.0 mi ENE 16.1 mph 23.0 mph N/A   Scattered Clouds
2:36 PM 1.4 °F -17.6 °F -11.2 °F 56% 30.16 in 10.0 mi ENE 15.0 mph 23.0 mph N/A   Scattered Clouds
2:56 PM 1.4 °F -18.2 °F -11.2 °F 56% 30.15 in 10.0 mi ENE 16.1 mph 24.2 mph N/A   Partly Cloudy
3:16 PM 1.4 °F -16.9 °F -11.2 °F 56% 30.15 in 10.0 mi ENE 13.8 mph 20.7 mph N/A   Partly Cloudy
3:56 PM 1.4 °F -17.6 °F -13.0 °F 51% 30.14 in 10.0 mi ENE 15.0 mph 21.9 mph N/A   Partly Cloudy
4:16 PM -0.4 °F -18.4 °F -13.0 °F 55% 30.14 in 10.0 mi ENE 12.7 mph 23.0 mph N/A   Partly Cloudy
4:36 PM -0.4 °F -18.4 °F -14.8 °F 51% 30.14 in 10.0 mi ENE 12.7 mph 20.7 mph N/A   Partly Cloudy
4:56 PM -0.4 °F -21.7 °F -14.8 °F 51% 30.13 in 10.0 mi ENE 18.4 mph 24.2 mph N/A   Partly Cloudy
5:36 PM -0.4 °F -20.5 °F -14.8 °F 51% 30.13 in 10.0 mi ENE 16.1 mph 23.0 mph N/A   Clear
5:56 PM -0.4 °F -20.5 °F -14.8 °F 51% 30.13 in 10.0 mi ENE 16.1 mph - N/A   Clear
6:16 PM -0.4 °F -19.2 °F -14.8 °F 51% 30.13 in 10.0 mi ENE 13.8 mph 23.0 mph N/A   Clear
6:56 PM -0.4 °F -20.5 °F -14.8 °F 51% 30.12 in 10.0 mi ENE 16.1 mph 21.9 mph N/A   Clear
7:16 PM -0.4 °F -20.5 °F -14.8 °F 51% 30.12 in 10.0 mi ENE 16.1 mph 25.3 mph N/A   Clear
7:36 PM -0.4 °F -19.9 °F -16.6 °F 46% 30.12 in 10.0 mi ENE 15.0 mph 19.6 mph N/A   Clear
7:56 PM -0.4 °F -19.9 °F -16.6 °F 46% 30.11 in 10.0 mi ENE 15.0 mph 23.0 mph N/A   Clear
8:16 PM -2.2 °F -21.5 °F -16.6 °F 50% 30.11 in 10.0 mi ENE 13.8 mph 18.4 mph N/A   Clear
8:36 PM -2.2 °F -21.5 °F -16.6 °F 50% 30.11 in 10.0 mi NE 13.8 mph 19.6 mph N/A   Clear
8:56 PM -2.2 °F -22.2 °F -16.6 °F 50% 30.11 in 10.0 mi NE 15.0 mph 19.6 mph N/A   Clear
9:16 PM -2.2 °F -20.7 °F -16.6 °F 50% 30.10 in 10.0 mi NE 12.7 mph - N/A   Clear
9:36 PM -2.2 °F -21.5 °F -16.6 °F 50% 30.10 in 10.0 mi NE 13.8 mph - N/A   Clear
9:56 PM -2.2 °F -20.7 °F -16.6 °F 50% 30.10 in 10.0 mi NE 12.7 mph - N/A   Clear
10:16 PM -2.2 °F -20.7 °F -16.6 °F 50% 30.10 in 10.0 mi NE 12.7 mph - N/A   Clear
10:36 PM -2.2 °F -19.9 °F -16.6 °F 50% 30.09 in 10.0 mi NE 11.5 mph - N/A   Clear
10:56 PM -2.2 °F -21.5 °F -16.6 °F 50% 30.09 in 10.0 mi NE 13.8 mph 18.4 mph N/A   Clear
11:16 PM -2.2 °F -19.9 °F -16.6 °F 50% 30.08 in 10.0 mi NE 11.5 mph - N/A   Clear
11:36 PM -2.2 °F -21.5 °F -16.6 °F 50% 30.08 in 10.0 mi NE 13.8 mph - N/A   Clear
11:56 PM -2.2 °F -19.9 °F -16.6 °F 50% 30.07 in 10.0 mi NE 11.5 mph 18.4 mph N/A   Clear